This is the latest recevied weather packets stored in our database for station/object SQ5LTL-2. If no packets are shown the sender has not sent any weather packets the latest 10 day(s).
| Time | Temp. | Humidity | Pressure | Rain* | Wind** | Luminosity | Snow |
|---|---|---|---|---|---|---|---|
| 1777741523 | 20° C | 42% | 1021 hPa | 0 mm | - | 23 W/m² | - |
| 1777741220 | 20.56° C | 41% | 1021.1 hPa | 0 mm | - | 24 W/m² | - |
| 1777740918 | 20.56° C | 41% | 1021.1 hPa | 0 mm | - | 26 W/m² | - |
| 1777740618 | 20.56° C | 40% | 1021.1 hPa | 0 mm | - | 27 W/m² | - |
| 1777740335 | 21.11° C | 39% | 1021.1 hPa | 0 mm | - | 29 W/m² | - |
| 1777740036 | 21.11° C | 38% | 1021.2 hPa | 0 mm | - | 30 W/m² | - |
| 1777739733 | 21.67° C | 38% | 1021.3 hPa | 0 mm | - | 32 W/m² | - |
| 1777739431 | 21.67° C | 38% | 1021.3 hPa | 0 mm | - | 33 W/m² | - |
| 1777739130 | 21.67° C | 37% | 1021.4 hPa | 0 mm | - | 38 W/m² | - |
| 1777738828 | 22.22° C | 36% | 1021.3 hPa | 0 mm | - | 39 W/m² | - |
| 1777738528 | 22.22° C | 36% | 1021.3 hPa | 0 mm | - | 37 W/m² | - |
| 1777738226 | 22.22° C | 36% | 1021.4 hPa | 0 mm | - | 44 W/m² | - |
| 1777737923 | 22.78° C | 36% | 1021.4 hPa | 0 mm | - | 46 W/m² | - |
| 1777737623 | 22.78° C | 35% | 1021.6 hPa | 0 mm | - | 45 W/m² | - |
| 1777737322 | 22.78° C | 35% | 1021.5 hPa | 0 mm | - | 54 W/m² | - |
| 1777737019 | 22.78° C | 34% | 1021.6 hPa | 0 mm | - | 85 W/m² | - |
| 1777736719 | 23.33° C | 34% | 1021.7 hPa | 0 mm | - | 126 W/m² | - |
| 1777736416 | 23.33° C | 34% | 1021.7 hPa | 0 mm | - | 134 W/m² | - |
| 1777736135 | 23.33° C | 35% | 1021.8 hPa | 0 mm | - | 135 W/m² | - |
| 1777735833 | 22.78° C | 35% | 1021.8 hPa | 0 mm | - | 139 W/m² | - |
| 1777735532 | 22.78° C | 35% | 1021.8 hPa | 0 mm | - | 148 W/m² | - |
| 1777735230 | 23.33° C | 35% | 1022 hPa | 0 mm | - | 157 W/m² | - |
| 1777734929 | 23.33° C | 35% | 1021.9 hPa | 0 mm | - | 170 W/m² | - |
| 1777734627 | 23.33° C | 35% | 1021.9 hPa | 0 mm | - | 182 W/m² | - |
| 1777734326 | 23.33° C | 35% | 1022 hPa | 0 mm | - | 193 W/m² | - |
* Rain latest hour (hover to see other rain measurements)
** Current wind speed in m/s (hover to see current wind gust speed)